COSMOS 1275 DEB, 42144

Orbit data source: Space-Track

COSMOS 1275 DEB, 42144 is space debris in LEO originally from a launch on Thu, 04 Jun 1981 UTC launched from the Plesetsk Missile And Space Complex (PKMTR). Debris objects in space refer to the collection of defunct objects orbiting the Earth. Examples of debris include non-operational satellites, rocket bodies, and fragments generated from explosions, collisions, or faulty payload assembly.

Loading next visibility...
Identifier
42144, 1981-053RG
Orbit
LEO
Country
Flag of CISCIS
Related business
Manufacturer
Unknown
Mission
Spacecraft
Bus & Motor
Unknown
Mass
Unknown
Launch date (UTC)
1981-06-04 (45 years ago)
Launch vehicle
Unknown
Launch site
Plesetsk Missile And Space Complex (PKMTR)
Object type
Payload
Rocket body
Debris
Shape & HBR
Unknown shape, 0.1 m
Radar Cross Section
Small (<0.1 m²)

Expand to show TLE details & history
Last TLE update: 18 hours ago

TLE from 18 hours ago
0 COSMOS 1275 DEB
1 42144U 81053RG  26037.00896327  .00001573  00000-0  12694-2 0  9995
2 42144  82.8057  45.7872 0061611  89.0387 301.8078 13.88863721617389
Epoch: 2026-02-06T00:12Z
TLE epoch observation values (Epoch: 2026-02-06T00:12:54.426Z)
Latitude
30.03201°
Longitude
-89.42984°
Altitude
912.839 km
Speed
7.41 km/s
True Right ascension
03h 19m 47s
True Declination
29° 53' 11"
Sunlit
Object was in daylight at epoch
Visualization orbit readout
Latitude
Unknown
Longitude
Unknown
Altitude
Unknown
Speed
Unknown
Apparent Right ascension
Unknown
Apparent Declination
Unknown
Sunlit
N/A
Visualization observer readout
Local Sidereal Time
20:40:32
Azimuth
Unknown
Elevation
Unknown
Doppler factor
Unknown
Orbital elements
Apogee altitude
974.775 km
Perigee altitude
884.726 km
Semi-major axis
7,307.887 km
Eccentricity
0.00616
Inclination
82.8057°
RAAN
45.7872°
Arg. of periapsis
89.0387°
True anomaly
301.20538°
Mean anomaly
301.8078°
Eccentric anomaly
301.50684°
Mean motion
3.4742 °/min
Orbital period
103.62 mins
BSTAR
0.0012694
Loading maneuver chart data...
Computing Atmospheric mass density...
Loading historical data...
Loading historical data...
Loading historical data...
Loading historical data...
Loading historical data...
Loading historical data...
Loading historical data...

Documentation

Showing up to 5 results
|